Home   Weather   Scottsbluff   Past weeks
Flag for USA

Past Weather in Scottsbluff, Nebraska, USA — Yesterday and Last 2 Weeks

Now
30 °F

Sunny.


Feels Like: 25 °F
Forecast: 75 / 33 °F
Wind: 5 mph from North

Location: Heilig Field

Current Time: Apr 19, 2019 at 7:10:05 am

Latest Report: Apr 19, 2019 at 5:53 am


Visibility: 10 mi

Pressure: 30.12 "Hg (25.95 "Hg at 1186m altitude)

Humidity: 82%

Dew Point: 25 °F

Location of ScottsbluffLocation

Past Weather in Scottsbluff — Graph

°F

Scottsbluff Temperature Yesterday

Maximum temperature yesterday: 61 °F (at 1:53 pm)
Minimum temperature yesterday: 37 °F (at 11:53 pm)
Average temperature yesterday: 49 °F

High & Low Weather Summary for the Past Weeks

 TemperatureHumidityPressure
High75 °F (Apr 8, 1:53 pm)100% (Apr 4, 5:07 am)30.19 "Hg (Apr 4, 5:07 am)
Low19 °F (Apr 12, 5:53 am)18% (Apr 7, 3:53 pm)29.47 "Hg (Apr 9, 9:53 pm)
Average45 °F63%29.84 "Hg
* Reported Apr 4 5:07 am — Apr 19 5:53 am, Scottsbluff. Weather by CustomWeather, © 2019

Note: Actual official high and low records may vary slightly from our data, if they occured in-between our weather recording intervals... More about our weather records

Advertising

Scottsbluff Weather History for the Previous 24 Hours

Scroll right to see more
 ConditionsComfort  
Time TempWeatherWind HumidityBarometerVisibility
5:53 am
Fri, Apr 19
30 °FSunny.5 mph82%30.12 "Hg10 mi
4:53 am29 °FClear.No wind79%30.13 "Hg10 mi
3:53 am32 °FPassing clouds.No wind75%30.15 "Hg10 mi
2:53 am30 °FPassing clouds.5 mph75%30.18 "Hg10 mi
1:53 am31 °FClear.No wind73%30.19 "Hg10 mi
12:53 am33 °FClear.7 mph70%30.19 "Hg10 mi
11:53 pm
Thu, Apr 18
37 °FClear.3 mph60%30.17 "Hg10 mi
10:53 pm38 °FClear.No wind58%30.16 "Hg10 mi
9:53 pm44 °FClear.3 mph43%30.16 "Hg10 mi
8:53 pm45 °FClear.3 mph42%30.15 "Hg10 mi
7:53 pm50 °FClear.8 mph33%30.14 "Hg10 mi
6:53 pm57 °FClear.20 mph26%30.11 "Hg10 mi
5:53 pm59 °FSunny.26 mph23%30.11 "Hg10 mi
4:53 pm61 °FScattered clouds.28 mph21%30.09 "Hg10 mi
3:53 pm59 °FScattered clouds.28 mph22%30.09 "Hg10 mi
2:53 pm60 °FPartly sunny.31 mph20%30.09 "Hg10 mi
1:53 pm61 °FPassing clouds.28 mph23%30.09 "Hg10 mi
12:53 pm56 °FMostly cloudy.35 mph28%30.12 "Hg10 mi
11:53 am56 °FPartly sunny.31 mph32%30.13 "Hg10 mi
10:53 am57 °FPassing clouds.33 mph32%30.11 "Hg10 mi
9:53 am53 °FPartly sunny.29 mph43%30.12 "Hg10 mi
8:53 am50 °FPassing clouds.26 mph50%30.11 "Hg10 mi
7:53 am45 °FMostly cloudy.17 mph65%30.11 "Hg10 mi
Weather by CustomWeather, © 2019

See weather overview